Preview of NWS' New Version of Forecast
This preview is not operational and should not be used for support decisions.

Regional Weather Roundup (RWR)

Issued by National Weather Service (NWS)

                            
000
ASUS45 KBOI 192310
RWRID 

IDAHO REGIONAL WEATHER ROUNDUP
NATIONAL WEATHER SERVICE BOISE ID
500 PM MDT THU SEP 19 2019

NOTE: "FAIR" INDICATES FEW OR NO CLOUDS BELOW 12000 FEET
WITH NO SIGNIFICANT WEATHER AND/OR OBSTRUCTIONS TO VISIBILITY

IDZ012-014-200000-
SOUTHWEST IDAHO

  
CITY           SKY/WX    TMP DP  RH WIND       PRES   REMARKS
BOISE          MOSUNNY   66  45  46 W6        29.89F                  
CALDWELL       MOSUNNY   67  44  43 CALM      29.89S                  
MOUNTAIN HOME  MOSUNNY   61  45  54 NW3       29.91F                  
$$

IDZ016-017-200000-
SOUTHCENTRAL IDAHO

  
CITY           SKY/WX    TMP DP  RH WIND       PRES   REMARKS
BURLEY         CLOUDY    52  44  74 W9        29.93S                  
JEROME         CLOUDY    54  46  74 W8        29.95S                  
TWIN FALLS     NOT AVBL                                               
$$

IDZ019>023-200000-
SOUTHEAST IDAHO

  
CITY           SKY/WX    TMP DP  RH WIND       PRES   REMARKS
IDAHO FALLS    MOSUNNY   68  36  30 W14       29.84R                  
POCATELLO      MOSUNNY   61  40  45 W22G32    29.90R                  
REXBURG        MOSUNNY   66  37  34 W13       29.83S                  
$$

IDZ006-010-011-018-031-032-200000-
CENTRAL IDAHO MOUNTAINS

  
CITY           SKY/WX    TMP DP  RH WIND       PRES   REMARKS
MCCALL         CLOUDY    53  36  52 N15G24    29.93S                  
HAILEY         CLOUDY    50  45  81 SE6       29.94F                  
STANLEY          N/A     50  35  56 N7        29.95S                  
SALMON         LGT RAIN  57  43  59 E5        29.92R                  
CHALLIS        CLOUDY    54  41  61 S8        29.92S                  
$$

IDZ002-004-006-007-026-200000-
NORTHERN IDAHO

  
CITY           SKY/WX    TMP DP  RH WIND       PRES   REMARKS
LEWISTON       MOSUNNY   70  45  40 W12G20    29.93S                  
LOWELL           N/A     66  54  65 NW3       29.91F                  
COEUR D'ALENE  SUNNY     63  47  55 SW9       29.96F                  
MULLAN PASS    PTSUNNY   50  35  56 VRB7      29.99F                  
$$